Regional Weather Roundup
Issued by NWS

Home | Current Version | Previous Version | Graphics & Text | Print | Product List | Glossary On
Versions: 1 2 3 4 5 6 7 8 9 10 11 12 13 14 15 16 17 18 19 20 21 22 23 24 25 26 27 28 29 30 31 32 33 34 35 36 37 38 39 40 41 42 43 44 45 46 47 48 49 50
160
ASUS43 KLOT 130008
RWRIL

ILLINOIS REGIONAL WEATHER ROUNDUP
NATIONAL WEATHER SERVICE CHICAGO/ROMEOVILLE IL
600 PM CST FRI FEB 12 2016

NOTE: "FAIR" INDICATES FEW OR NO CLOUDS BELOW 12,000 FEET WITH NO
SIGNIFICANT WEATHER AND/OR OBSTRUCTIONS TO VISIBILITY.

* THESE STATIONS ARE NOT UNDER NWS QUALITY CONTROL. THEY ALSO MAY NOT
  REPORT WEATHER SUCH AS PRECIPITATION OR FOG.

ILZ001-002-007-009-015-016-024-130100-
NORTHWEST ILLINOIS

CITY           SKY/WX    TMP DP  RH WIND       PRES   REMARKS
MOLINE         CLEAR     16   1  51 NW18G24   30.42R WCI   0
6HR MIN TEMP:  16; 6HR MAX TEMP:  26;

STERLING*      CLEAR     18   1  49 NW14      30.33R WCI   4
SAVANNA*       CLEAR     16  -1  46 NW14      30.40R WCI   1
$$

ILZ003-004-008-010-011-017-018-130100-
NORTH CENTRAL ILLINOIS

CITY           SKY/WX    TMP DP  RH WIND       PRES   REMARKS
ROCKFORD       PTCLDY    17  -3  41 NW21G28   30.33R WCI   0
6HR MIN TEMP:  17; 6HR MAX TEMP:  23;

FREEPORT*      PTCLDY    15  -3  45 NW18      30.35R WCI  -2
ROCHELLE*      MOCLDY    17   4  57 NW15G21   30.32R WCI   2
DE KALB*       CLEAR     17   0  47 NW12G18   30.29R WCI   4
$$

ILZ005-006-012>014-019>023-130100-
NORTHEAST ILLINOIS

CITY           SKY/WX    TMP DP  RH WIND       PRES   REMARKS
CHICAGO-OHARE  PTCLDY    17  -2  43 N20       30.26R WCI   1
6HR MIN TEMP:  17; 6HR MAX TEMP:  23;

CHICAGO-MIDWAY PTCLDY    19  -2  39 NW18G29   30.27R WCI   4
6HR MIN TEMP:  19; 6HR MAX TEMP:  25;

AURORA         PTCLDY    19   2  47 NW16G28   30.29R WCI   4
6HR MIN TEMP:  19; 6HR MAX TEMP:  25;

LANSING*       CLEAR     19  -1  40 NW13G21   30.26R WCI   6
JOLIET*        PTCLDY    20   4  49 NW7       30.30R WCI  11
WAUKEGAN       CLEAR     14  -4  44 NW12G24   30.27R WCI   0
6HR MIN TEMP:  14; 6HR MAX TEMP:  21;

DUPAGE AIRPORT CLEAR     16  -3  43 NW15      30.27R WCI   1
6HR MIN TEMP:  16; 6HR MAX TEMP:  22;

KANKAKEE*      MOCLDY    21   5  49 NW15G25   30.28R WCI   8
WHEELING       CLEAR     16  -2  45 NW17G26   30.29R WCI   0
6HR MIN TEMP:  16; 6HR MAX TEMP:  22;

MORRIS*        PTCLDY    19   3  49 NW13G24   30.28R WCI   7
ROMEOVILLE*    PTCLDY    19  -1  42 NW17G25   30.28R WCI   3
NORTHERLY ISL    N/A     19  -5  34 NW13        N/A  WCI   6
$$

LMZ740>746-130100-
SOUTHERN LAKE MICHIGAN

STATION/POSITION SKY/WX   TEMP    WIND        PRES    VSBY  WAVE
                          AIR SEA DIR/SP/G                  HT/PER
                          (F)     (DEG/KT/KT) (MB)    (MI)  (FT/S)
HARRISON CRIB              20     320/ 27/ 29   N/A
BURNHAM HARBOR             19     310/ 17/ 20   N/A
CALUMET HARBOR             20                 1022.8R
BURNS HARBOR               21     300/ 20/ 22 1023.0R
MICHIGAN CITY              20     280/ 23/ 31   N/A
$$

ILZ025>027-034>036-040-047-049-050-058-095>099-130100-
WEST-CENTRAL ILLINOIS

CITY           SKY/WX    TMP DP  RH WIND       PRES   REMARKS
QUINCY         CLEAR     19   5  54 NW18      30.44R WCI   4
GALESBURG*     CLEAR     17   2  52 NW14      30.40R WCI   3
MACOMB*        CLEAR     19   5  54 NW22      30.44R WCI   3
JACKSONVILLE*  PTCLDY    26  10  51 NW15G22   30.40R WCI  13
PITTSFIELD*    CLEAR     23  10  56 W9        30.44R WCI  13
$$

ILZ028>032-037-038-041>044-048-051>054-059>061-130100-
CENTRAL ILLINOIS

CITY           SKY/WX    TMP DP  RH WIND       PRES   REMARKS
PONTIAC        CLEAR     21   7  53 NW20G31   30.32R WCI   6
BLOOMINGTON    CLEAR     20   3  47 NW16G23   30.32R WCI   6
DECATUR        CLEAR     24   8  50 NW22G28   30.32R WCI   9
PEORIA         CLEAR     19  -1  41 NW12G25   30.38R WCI   7
6HR MIN TEMP:  19; 6HR MAX TEMP:  29;

LACON*         CLEAR     18   3  50 NW18G24   30.36R WCI   2
LINCOLN*       CLEAR     24   4  43 NW15G23   30.35R WCI  11
SPRINGFIELD    CLEAR     24   8  50 NW14      30.38R WCI  12
6HR MIN TEMP:  24; 6HR MAX TEMP:  29; 6HR PCP: TRACE;

TAYLORVILLE    CLEAR     25  12  58 W20G25    30.36R WCI  11
$$

ILZ033-039-045-046-055>057-062-063-130100-
EAST-CENTRAL ILLINOIS

CITY           SKY/WX    TMP DP  RH WIND       PRES   REMARKS
CHAMPAIGN      CLEAR     22   6  50 NW20G29   30.29R WCI   7
RANTOUL*       CLEAR     24  10  55 NW14G24   30.29R WCI  11
MATTOON        CLEAR     23  11  60 NW17      30.30R WCI   9
PARIS*         MOCLDY    24  13  62 NW15G22   30.29R WCI  12
$$

ILZ079-100>102-130100-
SOUTHWEST ILLINOIS

CITY           SKY/WX    TMP DP  RH WIND       PRES   REMARKS
BELLEVILLE     CLEAR     27  14  57 NW14G23   30.39R WCI  15
CAHOKIA*       CLEAR     28  15  58 NW13      30.42R WCI  17
SPARTA*        CLEAR     28  17  61 NW8       30.40R WCI  20
$$

ILZ064>066-069>071-074>076-080>082-084>086-088>090-092>094-130100-
SOUTH-CENTRAL ILLINOIS

CITY           SKY/WX    TMP DP  RH WIND       PRES   REMARKS
CARBONDALE     CLEAR     29  19  66 N12       30.39R WCI  19
6HR MIN TEMP:  29; 6HR MAX TEMP:  36;

CAIRO*         CLEAR     34  26  71 N7        30.36R WCI  28
EFFINGHAM*     PTCLDY    26  17  69 W12       30.36R WCI  15
MARION         PTCLDY    30  19  64 NW12      30.39R WCI  21
MT. VERNON     PTCLDY    27  12  54 W3        30.38R
CENTRALIA*     PTCLDY    27  17  66 NW10      30.37R WCI  18
SALEM*         MOCLDY    28  15  59 W16       30.36R WCI  16
METROPOLIS*    CLEAR     33  25  71 NW8       30.37R WCI  26
$$

ILZ067-068-072-073-078-083-087-091-130100-
SOUTHEAST ILLINOIS

CITY           SKY/WX    TMP DP  RH WIND       PRES   REMARKS
LAWRENCEVILLE  CLOUDY    27  15  61 NW23G31   30.32R WCI  12
FLORA*         PTCLDY    27  15  60 NW13G20   30.36R WCI  17
FAIRFIELD*     MOCLDY    28  16  61 NW3       30.35R
HARRISBURG*    PTCLDY    29  19  67 NW16G25   30.38R WCI  17
ROBINSON*      MOCLDY    26  14  62 NW18      30.33R WCI  12
CARMI*         MOCLDY    28  20  70 NW16      30.35R WCI  16
$$

ABBREVIATIONS USED IN REMARKS
   TC - TEMPERATURE IN CELSIUS
  WCI - WIND CHILL INDEX
   HX - HEAT INDEX
  VSB - VISIBILITY
$$





USA.gov is the U.S. government's official web portal to all federal, state and local government web resources and services.